TimeEST,TemperatureF,Dew PointF,Humidity,Sea Level PressureIn,VisibilityMPH,Wind Direction,Wind SpeedMPH,Gust SpeedMPH,PrecipitationIn,Events,Conditions,WindDirDegrees,DateUTC
12:51 AM,6.1,-4.0,63,30.27,10.0,WSW,15.0,-,N/A,,Partly Cloudy,250,2013-01-23 05:51:00
1:51 AM,5.0,-4.0,66,30.27,10.0,WSW,13.8,-,N/A,,Partly Cloudy,240,2013-01-23 06:51:00
2:51 AM,5.0,-5.1,63,30.28,10.0,WSW,12.7,-,N/A,,Partly Cloudy,250,2013-01-23 07:51:00
3:51 AM,3.9,-5.1,66,30.28,10.0,WSW,11.5,-,N/A,,Partly Cloudy,250,2013-01-23 08:51:00
4:51 AM,3.0,-4.0,73,30.28,10.0,WSW,9.2,-,N/A,,Partly Cloudy,240,2013-01-23 09:51:00
5:51 AM,3.0,-5.1,69,30.28,10.0,WSW,10.4,-,N/A,,Partly Cloudy,240,2013-01-23 10:51:00
6:51 AM,3.0,-4.0,73,30.29,10.0,WSW,8.1,-,N/A,,Scattered Clouds,240,2013-01-23 11:51:00
7:51 AM,3.0,-2.9,76,30.29,10.0,SW,6.9,-,N/A,,Scattered Clouds,230,2013-01-23 12:51:00
8:51 AM,6.1,-2.0,69,30.29,10.0,WSW,10.4,-,N/A,,Mostly Cloudy,240,2013-01-23 13:51:00
9:51 AM,8.1,-0.9,67,30.30,10.0,WSW,10.4,-,N/A,,Scattered Clouds,250,2013-01-23 14:51:00
10:51 AM,10.9,1.0,64,30.29,10.0,WSW,15.0,-,N/A,,Mostly Cloudy,250,2013-01-23 15:51:00
11:51 AM,12.9,1.0,59,30.27,10.0,WSW,15.0,-,N/A,,Overcast,240,2013-01-23 16:51:00
12:51 PM,12.2,1.4,62,30.17,10.0,WSW,11.5,18.4,N/A,,Overcast,250,2013-01-23 17:51:00
1:51 PM,12.9,-0.0,56,30.22,9.0,West,13.8,-,0.00,Snow,Light Snow,270,2013-01-23 18:51:00
2:51 PM,14.0,1.0,56,30.20,10.0,West,6.9,-,0.00,Snow,Light Snow,270,2013-01-23 19:51:00
3:51 PM,12.9,3.9,67,30.20,3.0,WSW,8.1,-,0.00,Snow,Light Snow,250,2013-01-23 20:51:00
3:58 PM,12.2,5.0,73,30.12,1.5,WSW,8.1,-,0.00,Snow,Light Snow,240,2013-01-23 20:58:00
4:33 PM,12.2,5.0,73,30.11,2.0,SW,6.9,-,0.01,Snow,Light Snow,220,2013-01-23 21:33:00
4:44 PM,12.2,6.8,79,30.11,1.5,SW,6.9,-,0.01,Snow,Light Snow,230,2013-01-23 21:44:00
4:51 PM,12.9,6.1,74,30.19,1.5,SW,8.1,-,0.01,Snow,Light Snow,220,2013-01-23 21:51:00
5:51 PM,12.0,6.1,77,30.17,2.0,SSW,5.8,-,0.01,Snow,Light Snow,200,2013-01-23 22:51:00
6:07 PM,10.4,6.8,85,30.08,5.0,South,3.5,-,0.00,Snow,Light Snow,180,2013-01-23 23:07:00
6:51 PM,10.9,5.0,77,30.17,9.0,Calm,Calm,-,0.00,Snow,Light Snow,0,2013-01-23 23:51:00
7:51 PM,10.9,6.1,81,30.16,5.0,South,4.6,-,0.00,Snow,Light Snow,180,2013-01-24 00:51:00
8:51 PM,12.2,6.8,79,30.07,3.0,South,4.6,-,N/A,Snow,Light Snow,180,2013-01-24 01:51:00
9:51 PM,12.0,7.0,80,30.13,6.0,South,4.6,-,0.00,Snow,Light Snow,170,2013-01-24 02:51:00
10:51 PM,10.0,5.0,80,30.11,6.0,SSE,3.5,-,0.00,Snow,Light Snow,160,2013-01-24 03:51:00
11:51 PM,6.1,1.9,83,30.10,7.0,SE,3.5,-,0.00,Snow,Light Snow,140,2013-01-24 04:51:00